User: anonymous   Login
Location: Unspecified
(0.0000°N, 0.0000°E)
Time: 00:52:51
(UTC+00:00)
Language:

TIANWANG 1C (TW-1C) - Orbit

View from above orbital plane
View from above orbital plane
View from above satellite
View from above satellite

Ground track
Ground track

The orbit data is extracted from the following two-line orbital elements,

1 40926U 15051B   21023.73567682  .00147828  98931-5  48569-3 0  9995
2 40926  97.0495  84.9740 0001432 306.3958 152.4944 15.90548452301661
Epoch (UTC): 23 January 2021 17:39:22
Eccentricity: 0.0001432
inclination: 97.0495°
perigee height: 300 km
apogee height: 302 km
right ascension of ascending node: 84.9740°
argument of perigee: 306.3958°
revolutions per day: 15.90548452
mean anomaly at epoch: 152.4944°
orbit number at epoch: 30166

The dashed part of the orbit path shows where the satellite is in the earth's shadow,  

DLR